Preview of NWS' New Version of Forecast
This preview is not operational and should not be used for support decisions.

Regional Weather Roundup (RWR)

Issued by National Weather Service (NWS)

                            
000
ASUS45 KBOU 160110
RWRCO 

WEATHER ROUNDUP FOR COLORADO
NATIONAL WEATHER SERVICE DENVER/BOULDER CO
700 PM MDT SAT JUN 15 2019

NOTE: "FAIR" INDICATES FEW OR NO CLOUDS BELOW 12000 FEET WITH NO
SIGNIFICANT WEATHER AND/OR OBSTRUCTIONS TO VISIBILITY.

COZ001>005-013-030-031-160200-
...NORTHWEST COLORADO...
  
CITY           SKY/WX    TMP DP  RH WIND       PRES   REMARKS
CRAIG          FAIR      75  43  31 E8        30.03S                  
HAYDEN         FAIR      70  44  39 SE8       30.08S                  
MEEKER         FAIR      74  40  29 SE5       30.04S                  
RANGELY        FAIR      81  34  18 NW7       29.96S                  
RABBIT EARS PA NOT AVBL                                               
STEAMBOAT SPGS FAIR      68  38  33 CALM      30.09S                  
WALDEN         FAIR      63  34  34 CALM      30.19S                  
$$

COZ006>008-011-160200-
...WEST CENTRAL VALLEYS...
  
CITY           SKY/WX    TMP DP  RH WIND       PRES   REMARKS
GRAND JUNCTION FAIR      81  40  23 N10       29.92F                  
MONTROSE       FAIR      80  32  17 NW13G20   29.98F                  
EAGLE          PTSUNNY   76  37  24 N6        30.07R                  
RIFLE          FAIR      78  40  25 E6        29.97F THUNDER          
DELTA          FAIR      83  26  12 W12       29.94R                  
NUCLA          FAIR      77  39  25 S5        30.04S                  
$$

COZ017>023-064>068-160200-
...SOUTHWEST COLORADO...
  
CITY           SKY/WX    TMP DP  RH WIND       PRES   REMARKS
DURANGO        FAIR      63  43  48 N9        30.09S                  
CORTEZ         FAIR      67  47  48 N8        30.03R                  
PAGOSA SPRINGS FAIR      68  35  29 CALM      30.14S                  
TELLURIDE      FAIR      59  39  47 CALM      30.26S                  
WOLF CREEK PAS FAIR      45  28  53 CALM      30.46S                  
$$

COZ009-010-012-014-032>034-037-058>063-160200-
...CENTRAL COLORADO...
  
CITY           SKY/WX    TMP DP  RH WIND       PRES   REMARKS
ASPEN          FAIR      69  35  28 VRB3      30.12R                  
BUENA VISTA    FAIR      56  43  61 SW7       30.22S                  
COPPER MTN     LGT RAIN  41  34  75 SE14      30.44S                  
BERTHOUD PASS  FAIR      34  25  69 SE15      30.46F WCI  24          
COTTONWOOD PAS PTSUNNY   46  41  81 NW9G18    30.33F                  
GUNNISON       FAIR      64  37  36 E8        30.16R                  
GRANBY         FAIR      59  41  51 S8        30.20F                  
KREMMLING      FAIR      68  41  37 E10       30.14S                  
LEADVILLE      FAIR      48  36  63 NE8       30.32S                  
MONARCH PASS   CLOUDY    43  32  65 MISG      30.53S                  
SALIDA         FAIR      64  41  42 E3        30.27R                  
SUNLIGHT       FAIR      50  32  50 W6        30.37S                  
WILKERSON PASS FAIR      45  37  76 CALM      30.43S                  
$$

COZ069>075-160200-
...SAN LUIS VALLEY/SANGRE DE CRISTO MOUNTAINS...
  
CITY           SKY/WX    TMP DP  RH WIND       PRES   REMARKS
ALAMOSA        PTSUNNY   62  41  46 SE9       30.16R                  
DEL NORTE      CLOUDY    63  36  37 SW7       30.17S                  
LA VETA PASS   NOT AVBL                                               
SAGUACHE       FAIR      64  37  36 CALM      30.16R                  
$$

COZ035-036-038>040-160200-
...NORTHERN COLORADO FRONT RANGE...
  
CITY           SKY/WX    TMP DP  RH WIND       PRES   REMARKS
DENVER INTL AP LGT RAIN  67  49  52 N16G23    30.07R                  
AURORA         PTSUNNY   70  45  40 SW13      30.07R                  
FRONT RANGE AP PTSUNNY   72  45  37 W6        30.06                   
ERIE MUNI ARPT NOT AVBL                                               
BOULDER MUN AP FAIR      72  41  33 S6        30.04R                  
CENTENNIAL     PTSUNNY   69  45  41 SW14      30.08R                  
BROOMFIELD     PTSUNNY   68  45  42 S7        30.06F                  
FORT COLLINS     N/A     77  44  30 E7        30.02R                  
LONGMONT       PTSUNNY   76  45  32 SE12G18   30.05R                  
$$

COZ041-046-047-076>085-087-088-160200-
...PIKES PEAK/PALMER DIVIDE AND SOUTHERN FOOTHILLS...
  
CITY           SKY/WX    TMP DP  RH WIND       PRES   REMARKS
COLO. SPRINGS  PTSUNNY   64  49  57 N6        30.12S                  
A. F. ACADEMY  SUNNY     59  51  74 N6        30.12S                  
SCHRIEVER AFB  NOT AVBL                                               
CHEYENNE MTN   NOT AVBL                                               
ELLICOTT         N/A    N/A N/A N/A N7        30.09F                  
FALCON         FAIR      61  46  56 N7        30.16R                  
FORT CARSON    PTSUNNY   64  50  61 NW9       30.07S                  
LIMON          LGT RAIN  65  49  56 SW5       30.07R                  
MONUMENT HILL  FAIR      59  45  58 W5        30.17S                  
CANON CITY     FAIR      68  50  52 W6        30.07S                  
WALSENBURG     NOT AVBL                                               
TRINIDAD       PTSUNNY   58  52  80 NE6       30.12S                  
$$

COZ042>045-048>051-090-091-160200-
...NORTHEAST COLORADO...
  
CITY           SKY/WX    TMP DP  RH WIND       PRES   REMARKS
GREELEY ARPT   PTSUNNY   75  48  38 E7        30.01R                  
AKRON          FAIR      76  50  40 E8        30.00S                  
BURLINGTON     PTSUNNY   79  49  34 E9        29.96S                  
WRAY           FAIR      81  45  28 E7        29.95R                  
YUMA           FAIR      77   0   5 E7        29.96S                  
STERLING       FAIR      79  48  34 N5        29.95S                  
HOLYOKE        FAIR      81  45  28 N7        29.95R                  
FORT MORGAN    PTSUNNY   71  46  41 E3        30.00S                  
$$

COZ086-089-092>099-160200-
...SOUTHEAST COLORADO...
  
CITY           SKY/WX    TMP DP  RH WIND       PRES   REMARKS
PUEBLO         FAIR      67  51  56 E5        30.04S                  
LA JUNTA       TSTM      63  52  67 SW17G25   30.05R                  
LAMAR          FAIR      77  54  44 VRB5      29.94R                  
SPRINGFIELD      N/A     72  54  53 NE6       29.98R                  
$$